DW0479 Weather Reports


Display with metric or nautical units.
time (UTC)temp
F
wind
direction
speed
MPH
gust
MPH
rain 1hr
in
rain 24hr
in
rain mn
in
humidity
%
barometer
mb
20260507010014 83 129 4.0 9.0 0.00 0.00 0.00 56 1015.3
20260507005448 83 115 5.0 13.0 0.00 0.00 0.00 55 1015.2
20260507004011 83 119 3.0 9.0 0.00 0.00 0.00 55 1015.2
20260507003013 84 94 5.0 10.0 0.00 0.00 0.00 54 1015.0
20260507002012 85 109 4.0 10.0 0.00 0.00 0.00 53 1015.0
20260507001002 86 117 5.0 11.0 0.00 0.00 0.00 52 1014.9
20260507000002 86 109 4.0 13.0 0.00 0.00 0.00 52 1014.9
20260506235002 87 105 4.0 11.0 0.00 0.00 0.00 51 1014.7
20260506234002 89 94 4.0 12.0 0.00 0.00 0.00 47 1014.6
20260506233004 91 132 3.0 6.0 0.00 0.00 0.00 42 1014.5
20260506231948 91 103 3.0 8.0 0.00 0.00 0.00 41 1014.5
20260506230948 91 97 4.0 10.0 0.00 0.00 0.00 40 1014.6
20260506225948 92 92 4.0 10.0 0.00 0.00 0.00 40 1014.6
20260506224948 92 71 3.0 8.0 0.00 0.00 0.00 40 1014.6
20260506223949 92 100 4.0 10.0 0.00 0.00 0.00 41 1014.6
20260506222934 93 120 4.0 10.0 0.00 0.00 0.00 40 1014.6
20260506221935 93 98 3.0 9.0 0.00 0.00 0.00 41 1014.6
20260506220936 93 120 4.0 10.0 0.00 0.00 0.00 41 1014.6
20260506220906 94 111 3.0 8.0 0.00 0.00 0.00 40 1014.7
20260506214936 94 58 4.0 9.0 0.00 0.00 0.00 42 1014.7
20260506213936 94 124 4.0 8.0 0.00 0.00 0.00 40 1014.6
20260506212926 94 63 2.0 7.0 0.00 0.00 0.00 43 1014.7
20260506212849 94 171 3.0 10.0 0.00 0.00 0.00 40 1014.6
20260506210926 94 85 5.0 11.0 0.00 0.00 0.00 41 1014.6
20260506205923 94 113 4.0 10.0 0.00 0.00 0.00 40 1014.6
20260506204926 95 138 3.0 8.0 0.00 0.00 0.00 40 1014.6
20260506203916 94 135 3.0 8.0 0.00 0.00 0.00 38 1014.7
20260506202918 95 136 3.0 8.0 0.00 0.00 0.00 39 1014.8
20260506202406 95 143 2.0 5.0 0.00 0.00 0.00 40 1014.9
20260506200918 94 326 2.0 5.0 0.00 0.00 0.00 38 1014.8
20260506195916 94 5 3.0 9.0 0.00 0.00 0.00 39 1014.9
20260506194917 94 130 4.0 11.0 0.00 0.00 0.00 38 1014.9
20260506193918 94 181 2.0 7.0 0.00 0.00 0.00 39 1015.1
20260506192914 95 200 2.0 6.0 0.00 0.00 0.00 37 1015.2
20260506191913 95 135 3.0 7.0 0.00 0.00 0.00 40 1015.3
20260506190912 94 165 4.0 11.0 0.00 0.00 0.00 40 1015.5
20260506190357 94 223 3.0 8.0 0.00 0.00 0.00 40 1015.7
20260506184914 93 231 5.0 11.0 0.00 0.00 0.00 40 1015.7
20260506183913 94 193 4.0 10.0 0.00 0.00 0.00 40 1015.9
20260506182912 94 201 3.0 8.0 0.00 0.00 0.00 40 1016.0
20260506181910 92 256 4.0 8.0 0.00 0.00 0.00 40 1016.0
20260506181357 93 172 3.0 9.0 0.00 0.00 0.00 41 1016.1
20260506175910 92 242 4.0 9.0 0.00 0.00 0.00 38 1016.4
20260506174910 92 247 3.0 10.0 0.00 0.00 0.00 44 1016.4
20260506173912 91 326 3.0 7.0 0.00 0.00 0.00 47 1016.6
20260506172911 92 198 3.0 7.0 0.00 0.00 0.00 44 1016.7
20260506171910 91 192 2.0 7.0 0.00 0.00 0.00 46 1016.8
20260506170910 91 83 4.0 11.0 0.00 0.00 0.00 45 1016.7
20260506165910 90 119 4.0 8.0 0.00 0.00 0.00 47 1016.8
20260506164913 90 157 3.0 9.0 0.00 0.00 0.00 47 1016.9
20260506163901 89 194 4.0 10.0 0.00 0.00 0.00 48 1017.0
20260506162859 89 212 5.0 11.0 0.00 0.00 0.00 49 1017.0
20260506162339 89 236 4.0 10.0 0.00 0.00 0.00 49 1017.1
20260506160858 89 210 4.0 10.0 0.00 0.00 0.00 51 1017.0
20260506155858 89 173 5.0 11.0 0.00 0.00 0.00 50 1017.1
20260506154858 89 232 4.0 12.0 0.00 0.00 0.00 51 1017.0
20260506153859 87 123 5.0 11.0 0.00 0.00 0.00 54 1017.1
20260506152859 86 206 5.0 10.0 0.00 0.00 0.00 57 1017.2
20260506151856 86 200 6.0 11.0 0.00 0.00 0.00 59 1017.2
20260506150856 85 171 5.0 9.0 0.00 0.00 0.00 62 1017.2
20260506145858 85 155 4.0 10.0 0.00 0.00 0.00 62 1017.2
20260506144856 84 160 5.0 11.0 0.00 0.00 0.00 64 1017.2
20260506143856 84 151 3.0 9.0 0.00 0.00 0.00 68 1017.3
20260506142852 82 177 4.0 10.0 0.00 0.00 0.00 70 1017.4
20260506141851 82 157 4.0 9.0 0.00 0.00 0.00 73 1017.4
20260506140852 81 169 4.0 9.0 0.00 0.00 0.00 73 1017.4
20260506140336 81 139 3.0 9.0 0.00 0.00 0.00 76 1017.3
20260506134853 80 166 4.0 9.0 0.00 0.00 0.00 76 1017.3
20260506133851 79 109 5.0 10.0 0.00 0.00 0.00 78 1017.3
20260506132852 79 185 4.0 10.0 0.00 0.00 0.00 79 1017.2
20260506131852 77 160 4.0 9.0 0.00 0.00 0.00 83 1017.1
20260506130854 76 162 3.0 7.0 0.00 0.00 0.00 84 1017.0
20260506130325 75 133 3.0 7.0 0.00 0.00 0.00 86 1016.9
20260506124842 74 162 2.0 5.0 0.00 0.00 0.00 88 1016.8
20260506123842 72 132 1.0 4.0 0.00 0.00 0.00 90 1016.8
20260506123758 70 71 0.0 1.0 0.00 0.00 0.00 90 1016.8
20260506121846 69 71 0.0 1.0 0.00 0.00 0.00 90 1016.7
20260506120839 67 343 0.0 1.0 0.00 0.00 0.00 91 1016.6
20260506115836 66 343 0.0 0.0 0.00 0.00 0.00 92 1016.6
20260506114838 65 341 0.0 0.0 0.00 0.00 0.00 92 1016.5
20260506113835 64 317 0.0 1.0 0.00 0.00 0.00 93 1016.6
20260506112836 62 162 0.0 0.0 0.00 0.00 0.00 93 1016.4
20260506111829 62 203 0.0 0.0 0.00 0.00 0.00 93 1016.3
20260506110830 61 117 0.0 0.0 0.00 0.00 0.00 93 1016.2
20260506110259 61 105 0.0 0.0 0.00 0.00 0.00 93 1015.9
20260506104829 61 106 0.0 0.0 0.00 0.00 0.00 92 1016.1
20260506103830 61 106 0.0 0.0 0.00 0.00 0.00 92 1015.9
20260506102820 61 106 0.0 0.0 0.00 0.00 0.00 91 1016.0
20260506101818 61 105 0.0 0.0 0.00 0.00 0.00 91 1015.9
20260506100819 61 106 0.0 0.0 0.00 0.00 0.00 92 1015.9
20260506095818 61 105 0.0 0.0 0.00 0.00 0.00 92 1015.8
20260506094819 61 105 0.0 0.0 0.00 0.00 0.00 91 1015.8
20260506093818 61 106 0.0 0.0 0.00 0.00 0.00 91 1015.8
20260506092816 61 105 0.0 0.0 0.00 0.00 0.00 92 1015.6
20260506092252 61 106 0.0 0.0 0.00 0.00 0.00 92 1015.7
20260506090815 61 105 0.0 0.0 0.00 0.00 0.00 92 1015.5
20260506085817 61 106 0.0 0.0 0.00 0.00 0.00 91 1015.5
20260506084815 61 105 0.0 0.0 0.00 0.00 0.00 91 1015.6
20260506083813 61 106 0.0 0.0 0.00 0.00 0.00 91 1015.6
20260506082816 61 106 0.0 0.0 0.00 0.00 0.00 90 1015.7
20260506081813 61 105 0.0 0.0 0.00 0.00 0.00 91 1015.7
20260506080814 61 105 0.0 0.0 0.00 0.00 0.00 91 1015.6
20260506072805 62 105 0.0 0.0 0.00 0.00 0.00 91 1015.8
20260506071805 62 106 0.0 0.0 0.00 0.00 0.00 91 1015.8
20260506071237 62 106 0.0 0.0 0.00 0.00 0.00 90 1015.8
20260506061749 62 105 0.0 0.0 0.00 0.00 0.00 88 1016.2
20260506061704 63 105 0.0 0.0 0.00 0.00 0.00 88 1016.3
20260506050744 64 105 0.0 0.0 0.00 0.00 0.00 87 1016.7
20260506044745 65 105 0.0 0.0 0.00 0.00 0.00 85 1016.7
20260506043742 65 106 0.0 0.0 0.00 0.00 0.00 85 1016.7
20260506042742 65 105 0.0 1.0 0.00 0.00 0.00 85 1016.6
20260506041743 66 106 0.0 0.0 0.00 0.00 0.00 84 1016.5
20260506040744 67 106 0.0 0.0 0.00 0.00 0.00 82 1016.6
20260506040712 67 106 0.0 0.0 0.00 0.00 0.00 81 1016.6
20260506034728 67 106 0.0 1.0 0.00 0.00 0.00 81 1016.7
20260506034206 68 106 0.0 1.0 0.00 0.00 0.00 81 1016.7
20260506032729 68 105 0.0 2.0 0.00 0.00 0.00 81 1016.7
20260506032207 68 106 0.0 0.0 0.00 0.00 0.00 80 1016.8
20260506031210 68 105 0.0 1.0 0.00 0.00 0.00 80 1016.7
20260506030208 69 106 0.0 0.0 0.00 0.00 0.00 79 1016.7
20260506024723 69 106 0.0 0.0 0.00 0.00 0.00 77 1016.7
20260506023722 70 106 0.0 2.0 0.00 0.00 0.00 75 1016.7
20260506022719 71 105 1.0 3.0 0.00 0.00 0.00 74 1016.5
20260506022157 71 106 1.0 3.0 0.00 0.00 0.00 74 1016.4
20260506020723 71 106 1.0 3.0 0.00 0.00 0.00 73 1016.2
20260506015717 71 102 1.0 2.0 0.00 0.00 0.00 73 1016.2
20260506014716 72 102 1.0 3.0 0.00 0.00 0.00 71 1016.0
20260506013720 73 102 1.0 3.0 0.00 0.00 0.00 69 1015.9
20260506012713 74 92 3.0 7.0 0.00 0.00 0.00 68 1015.8
20260506011711 74 93 2.0 6.0 0.00 0.00 0.00 67 1015.7
20260506010711 75 106 3.0 8.0 0.00 0.00 0.00 66 1015.6